Theta_e
288 287 287 286 286 285 285 284 284 284 283 283 282 281 281 281 281 281 280 280 280 280 279 279 279 279 279 279 279 279 279 278 279 279 279 278 278 279 279 279 278 279 279 279 280 280 280 279 279 280 281 280 281 281 281 282 282 282 282 282 282 282 282 281 279 279 282 285 285 285 287 287 286 287 286 287 287 288 288 288 288 288 289 289 290
287 286 286 286 285 284 284 283 283 283 282 281 280 280 280 280 279 279 279 279 278 278 278 278 278 278 278 278 278 278 277 277 277 277 277 277 277 278 278 277 277 277 278 277 278 279 279 278 278 279 280 279 279 279 279 280 280 280 280 281 281 281 282 280 279 279 278 282 282 284 284 286 284 287 286 285 285 286 286 287 288 288 288 288 288
286 286 285 284 284 283 283 282 282 281 280 280 278 279 278 278 278 278 278 277 278 277 277 277 277 277 277 276 276 276 276 276 276 276 276 275 275 276 276 276 276 276 276 276 277 277 277 277 277 278 278 277 278 278 279 278 279 279 279 279 279 279 280 280 279 278 278 278 281 281 282 283 283 284 285 285 285 286 285 286 286 287 288 288 288
285 285 284 283 283 282 282 281 280 280 279 278 277 277 277 277 277 277 277 277 276 277 276 276 276 275 275 275 275 275 275 275 274 275 275 274 274 275 275 275 276 276 276 276 276 276 276 276 276 276 277 276 276 277 278 278 278 277 277 278 278 278 279 279 279 278 278 277 279 280 281 281 282 284 284 285 284 284 285 285 286 286 287 288 288
284 284 283 282 282 281 280 280 279 279 278 277 276 276 276 276 276 275 276 275 275 275 275 275 274 274 274 274 274 274 274 274 273 274 274 274 274 274 275 275 275 276 276 276 276 275 275 275 275 276 276 275 276 276 276 276 276 276 276 277 277 278 278 278 278 278 277 276 277 279 280 281 282 282 283 282 283 283 284 284 285 285 286 287 287
283 283 282 281 281 280 280 279 278 277 277 276 275 275 275 275 275 275 274 274 274 274 273 273 274 273 273 273 273 273 273 273 273 273 273 273 274 275 275 275 275 275 275 275 275 275 275 275 275 275 275 274 274 275 275 275 275 275 275 276 276 277 276 277 277 277 277 276 277 276 278 278 279 279 281 281 281 281 282 284 284 285 285 285 286
282 282 282 281 280 279 279 278 277 277 276 276 275 275 274 273 273 273 273 272 272 273 272 272 272 272 272 272 272 272 272 272 272 272 272 273 274 275 275 275 275 275 275 275 275 275 275 275 275 275 274 274 274 274 274 274 274 274 275 275 275 275 275 275 275 275 275 275 275 276 276 277 278 277 279 281 281 281 280 280 281 283 285 284 284
282 281 281 280 280 278 278 277 276 276 275 274 274 273 273 272 272 272 271 271 271 271 271 271 271 271 271 271 271 271 271 271 271 272 273 274 274 274 274 274 274 274 274 275 275 275 274 274 274 274 274 274 274 274 274 273 274 273 274 274 274 274 273 274 273 273 273 273 273 273 274 274 275 277 279 279 279 279 280 280 278 279 281 283 284
281 281 280 279 278 277 276 276 275 274 273 273 272 272 271 271 271 271 270 270 270 270 270 270 270 270 270 270 270 270 270 270 270 271 273 274 274 274 274 273 273 274 274 274 274 274 274 274 274 274 274 274 274 274 274 274 273 272 273 273 273 272 272 271 271 271 271 272 272 273 273 273 274 274 274 274 274 274 277 277 276 278 279 280 281
280 280 279 279 277 276 275 275 274 273 272 271 271 271 270 270 270 269 269 269 269 269 269 269 269 269 269 269 269 269 270 270 269 271 274 274 274 274 274 273 274 273 273 273 273 273 273 274 274 274 274 273 273 273 274 274 274 274 273 273 272 271 271 270 270 271 271 270 271 271 270 271 272 273 273 274 275 276 275 275 274 276 277 276 277
280 280 279 277 276 275 274 274 273 272 271 271 270 269 269 269 268 268 268 268 268 268 268 268 268 269 268 268 268 269 269 269 269 272 273 274 274 273 273 273 273 273 272 272 272 272 273 273 273 273 272 272 272 273 274 274 274 274 274 274 274 272 271 270 270 271 270 269 270 270 270 270 271 273 273 273 274 274 275 275 275 275 275 274 273
279 279 277 276 275 274 274 273 272 271 270 269 268 268 267 267 267 267 267 267 267 267 267 267 267 268 267 268 268 268 268 269 270 272 273 274 275 274 273 272 272 272 272 272 272 272 271 271 272 272 271 272 272 272 272 273 273 273 274 274 274 274 275 273 271 270 270 270 270 270 270 270 271 272 273 273 273 274 274 274 274 273 273 273 274
279 277 276 275 274 273 273 271 270 269 269 268 267 267 266 267 266 266 266 266 267 267 267 266 267 267 266 266 266 267 268 268 270 271 273 274 274 274 273 272 272 272 272 272 271 271 270 270 270 271 271 272 271 271 271 271 272 273 273 273 273 274 275 276 276 274 273 272 271 271 271 272 272 272 274 274 275 273 273 273 273 274 274 274 274
277 275 274 274 273 272 271 270 269 269 268 267 267 267 266 266 266 266 266 266 266 265 265 265 265 265 265 265 266 266 267 267 270 271 272 273 274 274 273 272 272 271 271 271 270 270 270 270 270 270 271 271 271 271 271 271 271 271 271 271 272 273 275 276 276 276 276 274 273 271 273 274 272 273 275 276 274 273 273 273 274 274 274 274 276
276 274 273 273 272 271 270 270 269 268 267 266 266 266 266 266 265 266 266 266 266 265 265 264 264 264 264 264 264 264 265 267 270 271 272 273 274 274 272 271 271 270 270 270 270 270 270 270 270 270 270 271 271 272 271 271 271 271 271 271 272 273 273 274 274 275 275 275 275 274 274 275 275 275 276 276 275 275 276 275 276 276 276 277 276
274 273 272 271 271 270 269 269 268 267 267 266 265 266 266 265 264 265 265 265 265 265 265 264 263 263 263 263 263 263 265 267 268 270 271 272 273 271 270 270 269 269 269 270 270 270 270 270 270 270 270 271 272 274 274 273 272 271 271 272 272 273 273 276 277 278 277 276 276 276 276 277 279 278 278 278 278 278 278 278 277 276 274 273 272
274 272 271 271 270 270 269 268 267 267 266 266 265 265 265 264 264 265 263 264 264 264 263 263 263 263 262 262 262 262 263 265 267 269 271 272 271 270 270 269 269 269 269 270 270 270 270 271 271 270 271 271 273 275 275 275 272 272 272 272 272 273 273 276 278 279 279 279 280 280 280 280 281 281 281 281 279 278 277 274 273 274 272 270 271
274 272 272 271 270 270 269 268 267 266 265 265 265 266 265 265 264 264 263 263 263 263 263 262 262 262 262 261 262 261 262 264 267 269 270 271 271 270 269 269 268 269 269 270 270 270 271 272 272 271 271 271 274 275 276 275 273 273 273 272 272 272 273 275 276 277 279 279 279 279 279 280 280 280 280 280 280 279 275 272 273 273 271 271 270
273 272 271 270 270 269 268 267 266 265 265 265 264 264 263 263 263 263 262 263 262 263 262 262 262 262 262 261 262 261 262 263 266 268 269 270 271 270 269 269 268 268 269 269 270 270 271 272 273 273 273 274 276 277 277 276 274 274 273 273 272 272 274 275 275 275 275 276 276 276 277 277 277 277 277 279 279 278 277 275 275 273 271 271 271
273 272 271 269 268 267 266 265 265 264 264 263 263 262 263 262 262 262 262 263 262 262 262 261 260 260 261 261 261 261 262 262 263 267 269 270 271 270 270 269 268 268 269 269 269 270 271 271 273 274 275 276 277 277 277 278 275 275 274 273 273 273 275 275 276 275 275 275 275 275 275 276 276 276 276 276 276 276 276 275 275 273 272 271 271
272 271 269 268 267 265 265 264 263 263 263 262 263 261 262 262 262 261 260 261 261 261 260 260 260 260 261 261 261 262 262 262 263 267 269 270 271 271 270 269 269 269 269 270 270 270 270 271 272 274 276 276 277 277 277 278 278 275 275 274 274 276 277 275 275 275 274 274 274 274 274 274 275 275 275 275 275 275 275 276 275 274 273 271 270
270 269 268 266 265 264 263 263 262 261 260 260 260 260 261 260 260 260 261 261 259 258 259 259 260 260 261 261 261 261 263 264 263 266 269 270 271 272 271 270 271 271 270 270 270 270 271 271 272 274 275 276 277 277 278 278 278 276 275 277 278 278 275 275 273 272 272 272 272 272 272 272 272 273 273 273 274 275 275 275 275 275 274 274 272
268 268 266 264 263 262 261 260 260 259 259 259 259 260 260 259 258 259 259 259 259 258 259 260 260 261 261 262 263 263 263 263 266 266 269 270 272 272 273 273 274 272 271 270 270 271 272 272 273 274 276 277 278 278 278 278 277 275 277 277 277 277 274 272 271 270 270 270 270 269 270 270 270 271 272 272 274 274 274 274 274 275 274 274 274
267 265 263 262 261 261 260 259 259 259 259 259 258 258 259 259 259 260 260 260 261 260 261 261 261 261 261 262 263 264 265 266 267 269 269 271 272 272 273 274 274 272 272 271 272 272 272 272 273 276 276 276 276 276 276 275 273 275 275 275 274 273 270 269 269 268 268 268 268 268 268 270 270 270 271 272 273 273 273 274 274 274 274 274 275
264 263 262 261 260 260 259 259 258 258 258 259 259 260 258 257 260 260 259 260 260 260 261 261 260 261 261 261 263 264 266 267 267 268 270 270 271 272 273 274 274 275 272 272 273 272 274 275 275 275 274 274 274 273 272 272 273 273 273 272 271 269 268 268 267 267 266 266 267 268 268 269 270 271 272 272 273 273 272 273 273 274 274 274 274
263 262 261 260 260 258 258 258 257 258 258 259 259 260 260 260 260 261 260 260 260 260 260 260 260 260 261 262 263 264 265 266 267 268 269 269 270 271 273 274 274 274 274 272 273 274 273 273 273 272 271 270 269 268 268 268 270 271 270 269 267 267 267 267 266 266 265 266 267 267 268 269 270 271 271 271 271 271 271 271 272 272 273 273 273
262 261 260 260 259 258 259 260 259 258 257 259 259 259 259 259 259 259 260 260 260 260 260 260 260 261 261 262 263 264 265 266 267 267 268 269 269 269 270 270 273 272 271 270 270 269 269 268 268 269 268 268 268 268 267 268 267 266 266 266 265 265 265 265 264 264 264 265 266 266 267 268 270 270 269 269 269 270 271 271 271 271 272 273 272
262 261 260 260 260 259 260 259 260 261 259 259 260 259 259 259 259 260 260 261 260 261 261 261 261 261 262 263 263 264 265 266 266 267 267 268 270 271 272 272 271 270 269 269 267 266 265 266 265 264 264 264 264 265 265 264 265 264 264 264 264 265 265 266 266 265 265 265 265 266 267 267 266 267 267 268 268 269 271 271 271 271 272 272 271
263 261 260 260 260 259 260 260 261 261 260 258 259 260 260 259 259 259 260 260 260 260 261 261 262 262 262 262 263 263 264 265 267 269 270 272 271 270 271 271 271 269 270 271 265 264 264 263 263 263 263 262 262 263 263 263 263 263 263 263 264 264 264 264 263 263 264 264 264 264 264 265 265 266 266 267 268 269 270 270 271 270 271 271 270
261 260 259 260 260 259 260 259 258 259 259 259 258 258 259 261 260 259 260 262 264 266 265 262 262 263 263 264 265 264 264 267 270 272 272 272 273 274 273 273 272 270 270 269 266 263 262 261 262 261 262 262 261 262 262 262 262 262 263 264 263 263 263 263 263 263 264 263 264 263 264 264 264 265 266 266 267 268 269 270 269 270 269 270 270
262 261 259 260 259 260 259 259 258 259 258 258 258 259 260 261 264 266 266 266 267 268 269 270 271 271 269 267 268 270 271 271 271 271 271 272 273 273 272 272 271 270 270 265 263 262 261 261 261 261 261 261 261 261 261 261 261 261 261 262 262 263 263 263 263 264 263 263 263 264 264 264 264 265 265 265 266 267 268 269 269 269 269 269 269
263 262 260 260 259 259 260 259 258 258 258 258 258 258 259 260 261 264 264 265 266 267 268 268 268 269 269 268 267 267 268 269 270 271 271 272 272 272 271 270 269 269 268 265 261 261 261 260 260 260 260 260 260 260 260 260 260 260 261 261 261 262 263 263 263 263 263 263 263 264 264 264 265 265 265 265 266 266 266 267 267 268 268 269 269
264 262 261 259 259 259 259 259 259 258 257 257 257 258 258 259 260 261 262 263 263 265 266 266 266 266 267 267 268 268 268 269 270 270 271 271 271 270 270 268 268 267 265 261 260 260 260 260 260 260 260 259 260 260 260 260 260 260 261 261 261 262 263 263 263 263 263 264 264 264 264 265 265 265 265 265 265 265 266 266 267 267 268 268 268
262 262 260 259 260 260 259 259 259 259 259 258 258 258 258 258 258 257 258 260 261 262 263 263 264 265 265 266 266 267 268 268 269 269 270 270 270 269 267 265 265 265 263 259 259 259 260 259 259 259 259 259 259 259 259 260 260 260 261 261 262 262 263 263 264 264 264 264 265 265 265 265 265 264 264 264 265 265 265 265 266 266 266 267 267
260 258 257 258 260 260 260 260 259 258 258 257 257 257 257 257 257 257 257 257 257 258 258 259 260 262 262 263 265 266 267 267 268 269 270 269 268 267 265 262 261 260 260 259 259 259 259 258 258 259 259 259 259 259 259 259 260 260 260 261 261 262 263 263 263 264 264 265 265 265 265 265 265 265 265 264 264 264 264 265 265 266 266 266 267
259 259 258 257 259 260 259 259 259 258 258 257 257 257 257 257 257 257 257 256 256 256 257 258 258 259 262 264 264 264 265 266 267 268 268 267 266 264 259 259 259 259 258 259 259 259 259 258 259 259 259 259 259 259 259 259 260 260 261 261 261 262 262 263 263 264 265 265 265 265 265 265 265 265 265 265 264 264 264 265 265 266 266 267 267
259 260 259 259 259 260 259 258 258 258 258 257 257 257 257 257 257 257 256 256 256 256 256 256 257 257 259 259 259 262 264 265 266 267 266 265 264 260 258 258 257 257 257 258 258 258 258 258 259 259 258 258 259 259 259 259 260 260 261 261 261 262 262 263 265 265 265 265 265 265 265 265 265 265 265 264 264 264 265 265 265 266 266 267 267
259 260 260 258 258 257 257 256 256 256 257 257 257 257 257 257 256 256 256 256 255 256 256 256 256 256 256 257 259 258 259 262 264 265 264 262 259 258 258 257 257 257 257 257 257 257 257 258 258 258 258 258 258 259 259 259 260 260 261 261 262 262 264 265 265 265 265 265 265 265 265 265 265 265 265 264 264 264 264 265 265 265 266 266 266
257 258 258 258 258 257 257 256 256 256 256 257 257 257 256 256 256 256 255 255 255 255 255 255 255 255 256 257 257 258 258 260 261 260 260 259 258 257 257 257 257 257 257 257 257 257 257 257 258 258 258 258 258 258 259 259 260 260 260 261 261 262 263 264 265 265 265 265 265 265 265 265 265 265 265 264 264 264 264 265 265 265 265 265 266
257 258 258 258 258 258 257 256 256 256 256 256 256 256 255 255 255 255 255 255 254 255 255 255 255 255 256 256 255 257 257 259 260 260 259 258 257 257 256 256 256 256 256 256 256 256 256 256 257 257 257 258 258 258 258 259 259 260 260 261 261 262 263 264 264 265 265 265 265 265 264 264 264 264 265 265 265 265 265 265 265 265 265 265 266
258 258 257 259 258 259 257 256 256 256 256 256 256 255 255 255 255 255 255 254 254 254 254 255 255 256 256 256 260 261 259 259 260 259 258 257 256 256 256 256 256 256 256 256 256 256 256 256 256 256 257 257 258 258 258 258 258 259 260 260 261 262 263 264 265 265 265 265 265 264 264 264 264 264 263 264 266 265 265 265 265 265 265 266 266
257 257 257 258 257 258 257 256 256 255 255 255 255 255 255 254 254 254 254 254 254 254 254 255 255 255 256 258 260 262 261 260 258 257 256 256 255 255 256 256 256 256 256 256 256 255 255 255 255 256 256 256 256 257 257 257 258 258 259 259 260 261 262 263 264 265 265 265 265 265 264 264 264 264 264 265 264 264 264 264 264 265 265 265 266
256 257 257 257 257 256 256 256 255 255 254 254 254 254 254 254 254 254 254 254 254 254 254 254 255 255 255 258 258 259 258 257 255 255 255 255 255 255 255 255 256 256 255 255 255 255 255 255 254 255 255 256 256 256 256 257 257 257 258 259 260 261 262 263 264 264 265 265 265 264 264 263 263 263 263 263 263 264 263 263 264 264 265 265 266
255 255 255 255 255 255 255 255 254 254 254 254 253 253 253 253 254 253 254 253 253 254 254 254 254 254 254 255 256 255 255 254 254 254 254 254 254 255 255 256 256 255 255 254 255 255 254 254 254 255 255 255 255 255 256 256 257 257 257 258 259 260 261 263 263 264 264 264 265 264 264 263 263 263 263 263 263 262 263 263 263 264 264 265 265
255 255 255 254 254 254 254 254 254 254 253 253 253 253 253 253 253 254 253 253 253 253 254 254 254 254 253 254 254 254 253 253 254 253 253 254 254 254 254 255 254 254 254 254 254 254 254 253 253 253 253 254 255 255 255 256 256 257 257 258 258 259 260 262 263 264 265 264 264 264 264 263 262 262 262 263 262 262 262 263 263 263 263 264 264
255 255 254 254 253 253 253 253 253 253 253 253 253 253 253 253 253 253 253 253 253 253 253 253 253 253 253 253 253 253 253 253 253 253 253 253 254 254 254 254 254 254 254 254 254 253 253 253 253 253 253 253 254 254 255 255 256 256 257 257 258 259 261 262 264 264 263 263 264 264 264 263 262 262 262 262 262 262 262 262 262 263 263 263 263
254 254 254 254 254 253 253 253 252 252 252 252 252 252 253 253 252 252 252 252 252 252 252 253 253 253 253 253 253 253 253 253 253 253 253 252 253 253 253 253 253 253 253 253 253 253 253 252 253 253 253 253 253 253 254 255 255 256 257 258 258 259 260 262 262 262 262 263 265 265 263 262 262 262 262 262 261 261 261 261 262 262 262 263 263
254 254 254 254 253 253 253 252 252 252 252 252 252 252 252 252 252 252 252 252 252 252 252 253 253 253 252 252 252 252 252 252 252 252 252 253 253 253 252 252 252 252 253 253 253 253 253 253 253 252 253 253 253 253 254 254 255 255 256 257 258 258 259 259 259 260 261 263 265 265 263 262 262 262 262 261 261 261 261 261 261 262 262 262 263
254 254 253 253 253 253 252 252 252 252 252 252 252 252 252 252 252 252 252 252 252 252 252 252 252 252 252 252 252 252 252 252 252 252 252 252 252 252 252 252 251 251 252 252 252 252 252 252 252 252 252 253 253 253 253 253 254 255 255 256 256 257 257 258 258 260 261 263 265 265 264 263 262 261 261 261 261 261 261 261 261 261 261 262 262
253 253 253 253 253 253 253 253 253 253 252 252 252 252 252 252 252 252 252 252 252 252 252 252 251 252 252 252 252 252 252 252 252 252 252 253 253 253 252 252 251 251 251 252 252 252 252 252 252 252 252 252 252 252 253 253 254 254 255 255 256 256 257 258 260 262 263 264 264 265 264 263 262 262 261 261 261 261 260 261 260 260 261 261 261
253 253 253 253 253 253 252 252 252 252 252 252 252 252 252 252 252 252 252 252 252 252 252 252 252 252 252 252 252 252 252 252 252 252 252 252 252 252 252 251 251 251 251 251 252 252 252 252 252 252 252 252 252 253 253 253 254 254 255 255 256 257 259 261 262 263 263 264 264 265 264 263 262 261 261 262 262 261 261 260 260 260 260 261 261
Wind_Speed
8 7 7 7 8 8 7 6 7 6 6 6 6 5 4 3 3 2 2 3 3 3 4 4 4 4 4 4 4 4 4 5 4 4 4 4 4 4 5 5 5 5 5 6 5 6 6 7 7 7 7 8 7 7 7 8 8 8 8 8 9 8 9 10 13 17 14 8 10 11 11 12 13 10 13 11 10 8 9 11 13 12 11 11 11
8 8 7 7 8 8 7 6 5 5 5 5 5 4 3 3 3 2 3 3 3 3 3 2 3 3 3 3 4 4 4 5 5 4 4 5 5 4 4 6 6 6 6 6 6 5 6 7 7 7 7 7 8 8 8 8 8 8 8 8 9 9 9 10 13 13 18 13 11 11 11 10 14 11 11 13 13 12 13 11 10 11 12 12 12
8 7 7 7 8 7 6 6 5 6 5 4 4 4 3 3 2 2 2 2 1 1 2 2 2 2 2 3 3 3 4 4 4 4 5 5 5 5 5 6 6 6 6 7 7 7 7 7 7 7 6 8 8 8 8 8 8 8 10 9 10 10 10 11 12 14 17 17 13 13 11 10 11 13 13 12 14 12 14 13 11 10 10 12 12
7 8 7 8 7 7 6 6 6 5 5 4 4 4 3 3 2 2 2 2 1 1 2 2 2 2 2 3 3 4 4 4 4 4 5 5 5 6 6 6 6 6 6 7 7 7 7 7 7 7 8 8 8 8 7 7 8 8 9 9 10 11 10 10 11 12 14 17 15 12 12 12 11 12 11 12 14 14 12 13 13 12 11 10 11
8 8 8 9 7 7 7 6 5 5 5 4 4 4 3 3 2 2 2 2 1 1 1 1 2 2 2 3 3 4 4 4 5 4 4 5 5 5 6 5 6 6 6 6 6 7 7 7 8 7 8 8 8 7 7 9 9 9 9 9 9 9 9 9 11 11 13 16 16 13 12 13 12 12 12 13 13 14 13 13 13 13 13 12 10
8 8 8 8 7 7 7 6 5 5 5 4 4 3 3 3 3 2 2 1 1 1 1 1 1 2 2 3 3 4 4 4 4 5 5 5 5 5 5 6 6 6 6 6 6 7 7 8 8 8 8 8 8 8 9 10 10 10 10 10 10 10 11 11 10 11 13 14 15 16 13 13 13 10 12 13 13 14 13 13 13 13 13 13 12
9 8 8 8 7 7 6 6 5 5 4 3 3 3 3 2 2 2 1 1 1 0 1 1 1 1 2 3 3 4 4 4 4 4 5 5 5 6 6 6 7 6 6 7 7 7 7 7 8 8 8 8 9 9 10 11 9 11 10 11 10 10 11 10 10 12 12 14 14 13 14 12 11 13 11 12 13 12 14 14 14 11 11 12 13
9 8 8 7 7 7 6 5 5 4 4 3 3 3 2 2 2 2 2 1 1 1 1 1 1 1 2 3 3 4 4 4 4 4 5 5 6 7 7 7 7 7 7 7 7 7 8 8 8 8 8 8 9 11 11 11 10 11 10 10 10 11 11 10 11 10 11 12 13 13 12 13 12 11 11 11 11 10 9 10 13 14 13 13 13
9 8 8 7 7 6 6 5 4 4 4 3 3 3 2 2 2 1 1 1 1 1 1 1 1 2 2 3 3 4 3 3 2 4 6 7 7 8 7 7 8 9 9 9 9 9 8 8 8 8 10 13 16 15 15 13 11 11 10 10 11 11 11 10 10 10 11 11 12 11 12 12 11 11 11 10 12 13 13 12 14 13 13 14 13
9 9 8 7 7 7 6 5 5 4 4 3 3 3 2 2 1 1 1 1 1 1 1 1 1 2 2 3 3 3 3 2 4 9 9 7 8 7 8 8 8 8 9 9 10 9 9 9 9 13 15 16 16 16 15 15 15 13 11 11 11 10 10 11 11 10 10 11 11 12 12 12 12 12 12 12 12 13 14 13 14 14 14 14 15
9 9 8 7 7 7 6 5 5 5 3 3 2 2 2 1 1 1 1 1 1 0 0 0 1 2 2 3 4 4 3 3 8 11 11 12 9 8 8 8 8 8 8 9 10 10 10 10 9 10 11 11 11 13 16 17 16 16 16 16 14 12 11 11 11 11 11 11 11 12 12 14 14 13 13 13 12 12 12 12 12 13 13 13 15
9 8 7 8 7 7 6 6 5 4 4 4 3 2 2 1 1 1 1 1 0 0 0 0 2 2 2 3 4 5 5 6 10 11 12 12 11 8 8 7 8 8 8 9 9 10 10 9 9 8 8 9 12 12 13 14 15 15 16 15 15 16 16 12 12 12 12 13 13 13 13 14 14 12 12 11 12 12 12 13 13 14 14 14 14
8 8 7 7 7 6 6 6 5 4 4 4 3 2 2 1 2 2 1 0 1 1 0 1 2 2 3 4 5 5 6 7 11 12 12 12 12 11 7 8 8 8 9 9 10 10 9 9 9 9 8 13 12 11 11 11 13 15 15 16 16 17 18 20 20 16 14 15 15 15 14 14 15 12 11 13 13 14 13 13 13 13 14 15 14
7 7 7 7 6 6 6 6 5 5 4 3 3 2 2 2 1 1 1 1 1 1 1 1 2 3 3 4 5 6 7 7 12 13 13 13 13 11 8 9 9 9 9 9 9 10 11 11 11 12 11 12 11 11 11 12 13 12 12 12 13 16 20 22 22 24 21 16 15 15 15 14 15 14 14 15 15 14 14 13 13 14 15 15 16
7 8 7 7 6 6 6 6 5 5 4 3 3 2 2 2 2 2 1 1 1 1 1 1 2 3 4 4 5 6 6 10 12 13 13 13 14 12 8 8 8 8 9 9 9 10 11 11 12 13 14 13 11 13 14 15 14 13 13 13 14 15 15 16 16 14 14 14 15 17 16 15 15 17 16 14 15 15 14 15 15 17 17 17 16
7 7 7 6 7 7 6 6 5 5 5 4 3 3 3 2 2 2 1 1 1 1 1 2 2 4 4 5 5 7 7 10 13 13 14 13 14 8 6 7 8 8 9 9 9 10 10 11 12 13 14 15 16 21 19 16 15 14 15 14 15 14 14 16 22 21 19 17 16 16 16 18 21 19 18 16 16 16 14 14 11 12 13 14 14
7 8 7 8 7 7 7 6 6 5 5 4 4 3 3 3 3 2 2 2 1 1 2 2 3 3 5 5 6 6 7 9 12 14 14 14 11 7 7 7 8 8 9 9 10 10 10 11 12 14 15 15 18 22 23 21 15 15 15 15 13 12 12 13 19 24 25 27 28 30 29 28 27 26 25 25 20 17 14 16 15 13 14 15 14
9 9 8 8 8 7 7 6 6 5 5 4 4 3 3 2 3 2 2 2 2 2 2 2 3 3 5 6 5 6 7 10 14 14 14 13 11 8 7 7 8 8 9 9 9 10 12 19 19 17 16 16 21 23 24 21 16 14 16 16 17 15 15 14 13 15 23 25 25 25 25 25 24 24 24 24 26 21 14 16 14 13 15 13 16
10 10 9 8 7 7 6 6 6 5 5 5 4 4 3 3 2 2 2 2 2 2 2 3 3 4 5 6 8 9 8 9 13 14 14 13 10 7 7 7 8 8 9 9 10 11 13 14 19 19 18 19 25 24 24 20 15 14 15 15 14 14 13 15 15 15 14 14 14 14 15 16 15 14 15 21 22 20 15 15 13 13 14 14 14
8 7 8 8 7 6 6 6 5 5 5 4 4 3 2 2 3 2 2 2 2 2 2 3 3 4 5 6 6 6 7 7 9 14 13 13 12 8 7 8 8 9 10 11 11 10 12 12 13 16 19 22 23 24 23 24 18 15 14 14 14 15 12 13 14 15 14 13 12 10 11 12 13 14 14 14 15 15 14 13 12 12 12 13 13
8 8 8 7 7 7 6 6 6 5 4 4 4 3 3 2 2 2 2 2 1 2 3 4 4 5 4 5 6 6 6 8 8 12 13 12 12 10 7 8 8 9 10 10 9 9 8 10 11 17 21 22 23 25 26 26 26 18 14 12 13 15 17 12 10 12 8 9 10 10 11 11 11 11 12 12 11 12 11 12 11 12 12 12 12
8 7 8 8 7 7 6 6 5 5 4 4 4 3 3 2 2 2 2 1 2 3 3 3 3 4 4 5 6 7 7 10 8 10 12 12 12 13 8 8 9 10 10 10 11 12 12 12 11 16 22 25 26 27 29 27 27 16 13 19 23 25 18 13 8 8 9 10 10 10 10 10 10 9 9 9 10 11 11 11 11 11 12 13 13
8 8 8 7 7 7 6 7 5 4 5 5 4 3 3 3 3 3 2 2 3 3 4 3 3 4 4 4 4 5 6 6 10 9 11 12 13 12 13 11 14 11 10 11 11 11 11 12 14 22 25 26 26 27 26 28 22 14 22 24 25 26 20 10 10 10 9 9 9 9 9 9 9 9 9 9 9 11 11 10 11 12 13 13 15
8 8 7 7 7 6 6 5 4 5 5 5 4 3 3 2 2 2 2 2 2 3 2 2 3 3 3 3 3 4 4 5 7 11 10 13 12 12 13 14 15 11 11 10 11 12 12 12 14 24 26 26 26 25 24 20 14 21 23 24 23 19 10 9 8 8 8 8 8 8 9 9 8 9 9 9 10 11 12 12 13 13 13 13 14
11 11 8 8 7 6 6 5 5 5 4 5 4 4 3 3 2 2 2 2 2 3 3 2 3 3 3 3 4 4 5 6 7 8 12 11 11 12 14 16 16 17 11 9 9 10 15 23 24 22 22 22 23 21 17 17 20 20 20 19 16 8 8 8 8 8 9 8 8 9 9 9 9 10 11 11 13 13 12 11 12 12 13 14 15
12 11 8 7 7 7 7 5 5 5 5 4 3 2 3 3 2 2 2 2 2 3 3 2 3 3 3 3 4 5 7 7 7 7 7 8 9 13 18 17 16 14 13 10 16 20 19 19 22 22 19 16 13 10 10 10 16 16 15 14 8 8 8 8 9 9 9 9 10 10 10 10 10 10 12 12 11 11 11 11 11 11 11 11 12
9 7 7 6 6 6 7 6 5 5 4 3 3 3 3 3 2 3 3 3 3 3 3 3 3 3 3 4 5 7 7 7 7 6 5 7 8 10 10 9 10 9 7 8 10 7 10 13 13 15 12 15 13 12 11 11 9 8 8 8 7 7 7 7 8 9 9 9 9 9 10 10 10 11 10 10 10 10 10 11 11 12 11 11 12
9 8 8 7 6 6 5 5 5 4 4 3 3 3 3 3 3 4 3 3 2 3 3 3 3 3 4 5 6 7 7 7 6 5 7 7 7 8 9 7 6 4 5 7 3 6 7 8 8 6 6 6 7 6 7 7 7 8 8 8 7 8 9 11 10 8 7 8 9 10 10 10 10 10 10 10 10 10 10 11 11 12 11 12 12
5 6 6 5 5 5 4 4 4 3 3 3 2 3 3 4 4 4 5 4 4 4 4 4 4 5 5 6 6 6 6 7 6 8 10 13 12 10 8 7 7 5 9 9 4 4 4 5 4 5 5 6 6 6 7 8 8 8 8 8 8 8 8 7 8 8 8 8 9 10 10 10 10 10 10 10 10 10 10 11 11 11 12 11 12
7 6 6 6 5 5 4 4 3 2 2 2 2 3 7 10 7 5 4 8 13 15 12 8 7 7 7 8 8 7 6 6 13 17 16 15 16 16 14 14 11 9 11 10 5 4 4 4 4 4 6 7 7 8 8 8 9 9 8 9 8 8 8 8 8 8 9 9 9 10 10 10 10 10 10 11 11 11 11 12 12 12 12 12 12
6 5 6 5 6 5 4 4 4 3 2 2 1 2 2 4 11 14 13 11 12 12 13 15 15 13 9 7 7 12 15 16 16 15 15 15 16 14 13 12 10 11 10 6 4 2 4 4 4 4 5 7 6 7 7 7 8 9 9 9 8 8 9 8 8 9 10 9 9 9 9 10 10 10 11 11 12 12 11 11 11 11 11 12 12
7 6 6 5 6 5 4 4 4 3 3 3 2 1 1 3 2 7 9 7 7 9 10 11 11 10 11 9 9 8 10 13 14 14 15 15 14 12 12 9 10 10 7 6 2 2 3 3 4 5 6 6 6 6 7 7 7 8 9 9 9 8 8 9 10 10 9 9 9 9 9 9 10 10 11 11 12 12 11 11 11 11 11 11 11
6 6 6 6 6 6 5 4 4 4 4 4 3 3 2 2 2 2 3 6 7 9 8 6 5 7 9 10 12 11 12 13 14 14 14 14 12 11 10 9 10 7 6 2 2 3 3 3 4 5 6 6 6 6 6 6 7 7 7 8 9 9 9 9 11 9 9 9 9 9 10 10 10 11 11 11 11 11 11 11 11 11 11 12 11
8 5 6 7 6 5 5 5 5 4 4 4 3 3 3 3 1 2 3 4 2 3 4 4 7 10 9 10 11 11 11 12 12 13 13 12 10 10 9 6 5 3 4 1 2 3 3 5 5 5 6 6 6 6 6 6 7 7 7 8 8 9 10 10 9 9 9 9 8 10 10 10 10 10 11 11 10 10 11 11 11 11 11 11 12
5 5 9 8 5 6 5 5 4 4 4 4 4 3 3 2 2 3 2 2 3 4 3 2 3 6 7 8 9 10 10 11 11 12 11 8 8 10 8 2 2 1 1 1 2 3 4 5 5 6 5 6 6 7 7 7 7 7 7 8 9 9 9 9 9 9 8 9 10 10 10 10 10 10 10 11 11 11 11 11 11 11 11 12 12
6 6 6 7 6 5 5 4 4 4 4 4 3 3 3 3 2 2 2 3 3 4 5 3 3 7 11 11 8 8 9 10 10 10 8 8 8 9 3 2 2 2 2 2 2 4 4 5 5 6 6 6 6 7 6 7 7 7 7 8 9 9 9 9 9 9 10 10 11 11 11 10 10 10 10 11 11 11 10 11 11 12 12 12 11
6 5 6 6 6 5 5 4 4 4 5 4 4 3 3 3 2 2 2 3 3 3 5 5 5 4 3 2 4 8 10 10 10 9 6 7 7 3 0 1 2 3 3 3 3 4 5 5 5 6 6 6 6 6 7 7 7 7 8 8 8 10 10 9 9 10 10 10 10 11 11 11 11 11 10 11 11 11 10 10 11 12 12 14 15
5 5 5 6 6 5 5 4 4 6 5 4 4 3 3 3 3 3 3 3 3 4 4 4 4 4 4 3 3 3 6 10 10 7 4 4 2 1 1 1 2 2 3 3 3 4 5 5 5 6 6 6 7 7 7 7 7 7 7 8 8 9 13 11 10 10 9 9 9 10 10 10 10 10 10 11 11 11 11 11 11 12 12 13 11
4 5 7 9 7 5 5 5 5 5 4 4 3 3 3 3 3 3 3 2 3 3 4 4 4 4 4 3 3 4 5 3 3 3 3 2 1 1 1 2 2 3 3 3 3 4 5 6 5 6 6 6 7 6 6 7 7 7 8 8 8 8 9 8 9 8 9 9 10 10 10 10 10 10 11 11 11 11 11 12 11 11 12 12 11
6 5 8 11 6 6 5 4 4 4 3 4 4 3 3 3 3 2 2 2 3 3 4 4 4 4 3 2 3 2 3 4 5 4 4 3 2 2 2 3 3 3 3 3 3 4 4 5 5 5 6 6 7 7 6 7 6 7 7 7 7 8 9 8 8 8 9 9 10 10 10 10 10 10 10 10 10 11 12 12 12 11 11 11 12
6 6 7 9 6 6 5 4 4 4 4 4 3 3 3 3 2 2 2 3 3 3 4 4 5 4 3 6 10 9 6 6 6 6 4 3 3 3 2 3 3 3 3 3 4 4 4 5 5 5 5 5 6 7 7 6 7 7 6 7 7 8 8 9 9 8 9 10 10 10 10 10 10 10 10 10 12 11 10 11 11 11 11 11 12
6 6 6 6 7 5 5 4 3 4 4 3 3 3 2 2 2 3 3 3 3 4 4 5 5 4 5 10 11 12 8 5 2 2 3 3 3 4 3 3 3 3 4 4 3 4 4 5 6 5 6 6 5 6 6 6 6 6 7 7 7 8 8 8 8 9 10 10 10 9 10 10 10 10 10 11 10 10 10 10 10 11 10 11 11
6 5 5 4 5 5 4 4 4 4 4 4 4 3 3 2 2 3 3 3 4 4 4 5 5 3 4 7 7 8 5 4 2 3 3 4 3 4 4 4 4 4 4 4 4 4 5 6 6 6 6 6 6 6 6 6 6 6 6 7 7 8 8 8 8 9 9 10 10 9 9 9 10 10 10 9 9 9 9 10 10 10 10 10 10
5 4 3 4 3 3 3 3 4 4 3 4 3 3 3 3 3 3 3 3 3 4 5 5 5 4 3 3 4 3 4 3 4 4 4 4 4 4 4 4 4 3 4 4 4 4 5 6 6 6 6 7 6 6 7 6 6 6 6 7 7 8 8 8 8 9 9 10 10 9 10 9 8 9 10 10 9 10 10 10 10 10 10 10 10
5 5 5 4 4 4 4 4 3 3 3 3 3 2 3 3 3 3 4 3 3 4 5 5 4 4 4 4 3 4 4 4 4 4 4 4 4 5 4 4 4 5 5 5 4 4 5 6 7 7 7 7 6 6 6 6 6 6 6 7 7 8 8 8 9 9 9 10 10 8 9 7 7 7 9 10 10 9 9 9 9 10 10 10 10
5 4 4 4 4 3 4 4 3 4 3 3 3 3 3 3 3 3 3 3 3 4 4 4 4 4 5 4 4 4 4 4 4 4 4 4 4 4 4 4 4 4 5 5 5 5 5 6 7 7 8 7 6 6 6 6 6 6 7 7 8 8 8 9 9 9 9 10 10 8 7 6 6 7 8 9 9 8 9 10 9 8 9 10 10
4 4 4 4 4 3 3 3 4 4 4 3 3 3 2 3 3 3 4 5 4 4 4 5 4 5 5 4 4 4 4 4 4 4 4 5 5 5 5 5 4 5 5 5 5 5 6 6 7 7 8 8 7 7 7 6 5 6 6 6 7 8 8 7 8 9 9 10 10 7 5 5 6 6 7 7 8 8 8 9 9 10 9 8 9
4 3 4 3 3 3 4 4 4 5 3 3 3 3 2 2 3 3 3 3 5 5 5 5 5 5 4 5 4 4 4 4 4 5 5 5 4 4 4 4 5 5 5 5 5 5 5 5 6 6 7 8 7 7 6 6 6 6 7 7 7 7 10 12 9 10 9 9 11 8 6 6 5 6 6 6 6 8 9 9 9 8 8 8 8
4 4 4 4 4 4 4 4 3 3 3 2 2 3 3 3 4 3 4 4 4 4 4 5 5 5 5 5 4 4 5 5 5 5 4 4 4 4 4 5 5 5 5 6 5 5 5 6 6 6 6 7 7 7 7 7 8 8 8 7 9 14 16 17 13 10 14 12 10 9 8 6 6 7 6 5 5 6 7 7 7 8 8 8 8
4 4 4 4 4 4 3 2 2 2 2 2 2 2 3 3 4 4 4 4 4 4 5 5 5 5 5 4 4 4 5 5 5 5 4 5 5 4 4 4 5 5 5 6 5 5 5 5 5 6 6 6 7 7 7 7 7 7 7 8 13 16 17 19 19 20 14 8 10 9 8 6 6 5 5 5 4 5 5 6 6 7 6 7 6
3 4 4 5 4 3 3 3 4 3 4 3 4 3 3 4 4 4 4 4 5 4 4 5 5 5 5 5 4 5 5 5 5 5 5 5 5 5 5 5 5 5 5 6 6 6 6 5 5 6 5 6 6 6 7 7 7 7 10 15 17 18 19 18 13 14 18 14 10 8 6 6 8 7 5 4 4 4 5 6 6 6 6 6 6
Wind_Direction
135 129 127 124 121 115 113 107 102 98 94 91 92 90 89 87 79 83 79 59 42 39 32 25 16 13 10 9 5 356 356 350 348 341 340 338 333 328 321 323 319 315 316 312 311 310 308 304 304 304 307 306 305 307 303 301 297 292 289 288 282 280 280 279 281 287 289 280 282 289 293 297 293 290 292 295 294 286 276 281 284 285 285 285 286
141 135 130 128 125 123 116 110 107 104 104 103 102 106 107 93 83 76 75 54 48 34 32 19 9 3 6 360 355 350 345 344 341 338 337 334 329 328 322 322 320 316 317 313 318 317 310 305 306 306 309 304 301 298 298 298 297 292 289 287 286 284 281 283 282 283 289 295 289 288 291 292 288 294 296 302 301 300 294 286 280 276 277 280 281
139 136 132 131 129 124 122 120 119 122 122 122 117 112 105 100 96 104 101 104 93 61 19 14 2 359 353 354 345 338 340 337 335 333 330 330 325 324 320 318 315 315 315 314 315 314 310 309 308 314 312 306 302 299 298 294 293 295 293 292 288 286 285 281 283 283 287 290 294 294 294 293 290 299 302 298 297 297 295 292 286 278 270 273 276
142 138 136 134 133 132 131 131 136 140 133 123 127 130 137 132 127 116 113 97 84 64 37 2 359 359 343 353 341 335 335 336 332 329 324 322 323 317 315 315 311 310 309 309 312 313 309 309 309 313 307 302 302 303 300 301 302 298 295 293 290 290 289 285 280 282 289 292 294 297 302 301 299 297 299 298 297 295 291 291 290 285 278 271 273
147 146 143 140 142 141 140 143 145 143 136 136 145 143 142 132 118 103 94 94 58 53 23 13 357 351 350 343 330 327 328 326 323 321 321 319 314 312 310 308 307 306 305 305 306 307 307 306 309 309 309 306 305 308 309 307 303 299 296 296 294 296 295 292 291 289 289 289 294 298 302 299 301 301 302 302 299 294 294 291 293 294 292 287 279
154 148 149 147 149 148 146 148 149 146 142 144 146 139 126 120 119 110 92 104 66 103 35 359 330 345 323 326 312 310 317 321 316 316 317 317 311 309 310 310 309 308 305 306 310 310 308 310 309 310 309 308 308 310 310 309 309 302 300 300 301 299 296 294 292 291 289 288 294 300 302 305 308 304 305 302 299 299 299 299 295 292 292 292 287
158 153 154 152 150 152 152 153 150 149 148 143 140 137 127 124 134 121 117 122 100 105 21 355 320 336 315 318 310 314 313 313 313 317 316 315 316 315 314 310 306 305 301 305 306 305 305 304 305 306 305 306 308 312 315 311 306 304 304 304 304 304 301 301 301 299 295 294 294 294 301 304 305 307 307 301 298 296 298 301 297 295 295 300 301
158 157 154 153 152 150 149 148 146 140 135 137 144 139 136 143 137 137 136 137 116 84 9 342 317 316 313 308 306 302 304 305 317 319 322 321 321 315 311 309 308 304 305 305 305 304 302 300 299 299 299 304 310 309 307 304 305 302 304 305 305 306 305 307 306 302 298 297 296 300 302 302 305 300 303 307 304 301 304 308 307 308 304 298 294
160 158 158 155 151 147 144 142 135 133 138 143 153 155 145 137 140 140 134 125 100 101 344 335 314 309 300 292 295 299 296 302 327 332 325 320 317 312 309 305 304 303 305 306 306 303 300 297 296 297 300 298 296 295 294 293 295 297 300 302 304 304 303 302 301 300 298 296 297 300 302 302 305 309 309 306 304 303 310 316 303 299 302 302 300
159 160 160 153 145 147 146 142 142 141 148 156 161 156 144 137 147 141 132 106 105 40 347 322 311 304 307 303 301 292 289 287 299 310 314 314 314 307 305 302 303 302 303 305 304 302 301 300 295 295 296 297 295 293 293 292 288 288 293 299 300 300 300 300 298 298 298 298 299 305 303 301 304 307 305 306 305 304 302 299 295 298 298 295 289
162 161 155 147 145 147 148 145 143 149 148 163 162 151 134 132 136 153 147 120 123 107 292 327 328 307 304 306 303 297 287 283 300 311 313 313 312 306 303 302 300 298 298 300 302 302 303 301 298 300 298 293 293 294 297 295 293 292 292 292 293 294 298 296 295 299 298 294 296 296 295 296 297 299 299 302 302 300 300 304 303 301 300 301 300
161 157 145 147 152 156 150 144 146 147 160 176 158 132 121 133 161 180 180 141 148 94 216 337 310 307 302 299 298 293 290 290 305 310 312 312 312 308 302 298 299 295 297 298 299 301 302 303 300 299 297 297 301 300 296 294 294 294 293 293 292 291 288 288 291 293 290 291 291 290 293 291 293 296 298 301 301 300 301 300 297 295 294 293 292
155 147 148 154 159 154 146 146 148 163 175 160 140 137 129 159 189 196 196 188 199 182 44 322 300 312 302 304 292 290 287 295 305 309 310 311 310 309 299 295 294 292 295 295 295 299 301 300 302 298 297 296 294 291 293 293 294 296 293 291 289 285 282 283 284 283 286 285 285 286 284 289 291 291 293 297 297 294 294 289 288 287 287 286 289
153 148 151 159 158 153 148 145 161 170 161 149 144 153 151 191 197 223 207 220 184 260 267 275 298 301 303 301 293 289 288 292 303 307 309 309 309 308 298 296 291 289 290 292 293 295 297 299 300 300 296 295 292 291 293 296 297 294 290 285 281 280 281 280 280 279 278 276 277 278 282 281 282 285 285 285 285 282 282 280 280 285 288 287 292
152 154 158 160 159 157 150 158 166 159 154 150 161 167 176 190 206 214 220 216 215 242 270 264 283 291 289 291 291 287 281 292 303 307 308 309 308 309 299 294 289 285 288 287 288 290 292 293 292 291 297 296 290 292 294 292 291 288 282 273 268 270 274 277 276 278 277 276 274 274 275 272 272 277 279 277 273 274 275 278 284 289 292 293 289
155 159 162 167 168 163 157 163 161 159 157 161 172 179 181 189 208 215 223 225 212 220 256 256 272 277 285 288 285 285 285 298 305 305 307 308 310 308 297 290 287 285 286 289 287 288 288 289 289 289 289 292 290 290 290 291 289 284 279 271 268 267 265 263 267 267 269 271 272 271 270 271 273 276 278 279 282 287 287 287 290 294 296 293 291
171 169 169 170 169 164 166 161 159 158 160 170 175 187 181 197 208 201 214 233 221 240 249 258 272 279 282 279 281 283 287 294 301 303 306 307 310 300 292 289 288 288 287 289 289 286 285 284 286 286 287 287 289 290 291 292 289 282 274 267 257 256 258 269 268 269 272 273 273 277 280 284 286 287 289 288 288 291 293 294 291 295 291 291 289
176 170 174 168 165 164 165 160 156 160 165 175 178 185 177 204 198 205 224 227 237 236 262 264 258 263 271 276 277 283 285 290 297 301 303 303 304 300 294 289 287 288 290 288 288 287 281 278 274 279 285 287 289 290 290 291 286 284 285 284 281 275 275 274 275 269 267 271 275 279 285 290 294 295 293 290 289 289 287 285 290 289 284 283 286
175 175 169 160 161 157 157 156 157 160 172 175 174 182 190 197 202 208 224 229 242 241 248 261 265 269 261 269 278 279 278 284 291 298 301 302 304 295 291 289 286 286 290 290 282 277 278 277 283 286 285 287 291 294 295 294 291 286 283 281 281 277 277 275 272 273 276 274 269 271 275 273 278 281 281 283 283 282 278 279 284 282 282 284 284
162 150 148 152 150 151 153 151 157 163 171 167 170 183 180 189 202 218 235 246 244 261 252 258 266 271 270 269 268 269 275 278 283 294 299 302 301 298 292 288 288 286 286 282 280 276 273 274 281 290 293 294 295 296 297 296 292 284 280 283 283 285 287 283 276 276 277 277 279 278 279 287 287 283 281 282 282 279 278 279 279 279 280 280 281
147 151 148 147 150 152 153 159 160 167 164 161 172 172 191 195 189 208 234 232 242 269 266 270 262 266 264 263 269 270 264 273 276 288 297 300 300 300 292 288 289 290 284 275 271 277 289 292 294 295 298 298 298 297 295 292 289 292 292 282 282 291 302 306 314 325 323 317 304 295 291 287 283 282 281 280 280 282 279 276 275 275 276 277 278
148 147 150 152 151 150 152 155 158 155 154 158 167 183 179 181 206 213 233 234 247 253 255 267 262 265 266 260 260 264 264 265 279 288 293 298 301 299 295 289 290 292 295 296 297 293 289 291 294 297 298 296 295 295 295 297 305 312 307 307 310 315 316 319 320 313 303 297 294 291 287 283 280 279 279 280 280 279 277 278 278 278 274 271 273
150 149 147 146 151 152 154 154 156 152 161 173 174 179 173 180 201 210 221 238 237 254 252 250 265 270 276 271 267 270 269 267 276 292 296 299 301 302 300 299 300 300 297 291 289 292 295 297 297 294 293 295 301 306 309 310 313 311 311 313 314 314 316 316 311 305 299 299 296 292 290 287 286 287 288 288 289 289 289 285 282 279 276 274 271
142 140 146 151 149 154 151 152 153 161 169 165 170 174 183 178 203 215 211 238 255 257 269 251 268 271 278 288 284 289 287 283 290 297 301 309 312 310 308 305 304 298 294 291 296 297 299 299 299 305 311 314 312 311 311 319 321 316 314 315 317 321 316 311 310 309 306 298 293 288 287 287 288 286 285 289 291 292 290 286 281 275 272 274 277
151 151 156 156 158 152 151 162 162 167 167 170 176 175 171 179 211 203 203 237 247 262 269 263 270 283 282 285 303 306 302 308 303 297 302 306 311 313 313 308 306 304 301 298 305 309 310 310 313 314 314 315 318 319 319 317 317 318 319 323 327 321 319 316 314 310 303 297 291 288 287 288 288 288 290 292 292 290 287 284 279 276 273 271 269
155 161 154 157 158 148 153 159 168 167 172 177 182 182 165 182 206 213 216 229 225 242 267 266 275 268 276 287 303 310 307 302 298 300 301 298 295 298 301 306 306 308 315 323 318 312 313 317 319 318 316 316 318 317 315 318 321 324 328 331 328 324 324 322 318 314 304 301 297 293 293 296 296 296 295 292 289 287 289 286 285 281 278 277 275
146 148 159 156 148 161 168 173 167 164 176 173 177 174 181 186 201 224 223 226 232 242 249 253 264 263 279 301 303 301 300 298 300 298 301 302 294 285 281 279 292 322 331 318 315 324 323 320 316 317 320 321 322 322 322 325 327 329 333 335 328 325 323 319 313 307 304 300 300 297 297 296 296 297 298 299 294 289 287 286 284 282 282 279 277
166 165 161 159 165 174 182 157 162 160 166 173 180 182 188 197 209 216 208 210 223 239 228 242 246 256 290 297 294 291 296 300 292 297 303 294 294 304 302 314 329 338 338 321 356 335 324 321 322 325 321 324 328 331 332 327 322 325 326 324 319 315 313 309 308 305 303 304 299 301 300 304 303 300 299 296 292 290 289 287 288 288 287 288 284
144 141 149 153 161 166 173 161 175 160 154 175 214 213 200 196 209 230 229 218 223 229 244 243 239 237 253 265 273 277 284 289 290 297 297 303 307 303 311 320 328 353 326 340 17 330 316 316 318 325 330 331 334 334 337 337 334 330 326 324 323 325 324 326 322 317 315 313 311 308 305 303 302 302 300 297 295 297 298 296 294 293 293 288 282
155 165 165 169 154 161 170 167 157 159 165 183 200 243 229 226 220 214 238 232 234 238 230 235 238 249 249 250 239 246 256 278 296 301 303 304 303 307 316 320 326 333 327 355 5 323 314 312 318 325 332 338 336 336 334 335 333 333 334 331 327 326 325 323 322 320 318 313 308 305 304 304 301 303 303 302 301 300 300 299 299 297 293 289 286
167 157 163 177 168 166 161 157 165 164 163 173 221 260 295 230 231 240 247 256 264 264 265 269 276 277 283 290 284 281 288 293 298 298 300 303 304 314 322 326 340 336 341 2 339 323 318 317 321 324 330 331 322 323 321 322 327 330 331 332 328 326 324 318 321 321 315 310 307 306 303 302 300 301 303 303 302 300 302 300 298 296 292 292 291
168 168 168 161 154 166 158 156 149 165 165 175 197 192 265 303 275 205 218 256 271 275 280 282 279 279 285 289 292 292 291 293 293 297 301 301 307 320 322 346 346 333 344 9 318 303 299 306 313 320 324 318 314 311 312 313 314 317 321 325 328 328 321 321 318 311 305 302 306 309 307 306 303 303 301 300 302 301 300 300 299 298 296 295 293
159 151 153 152 161 162 164 161 172 170 172 176 182 192 205 205 262 298 188 213 253 280 286 277 287 298 302 299 293 289 289 292 296 301 300 301 316 322 336 359 339 335 356 0 314 298 301 306 310 316 312 304 308 304 305 303 307 307 312 312 318 325 321 308 306 295 293 298 304 306 310 308 306 304 301 301 301 300 301 299 298 296 299 300 300
162 158 158 159 157 160 167 175 172 174 172 174 180 183 201 207 222 251 300 314 252 225 238 296 320 324 312 300 299 298 295 296 298 298 297 310 323 332 345 340 325 5 15 327 312 306 314 314 307 302 301 301 302 302 303 309 310 305 310 314 310 310 312 310 311 310 308 303 309 313 312 310 309 307 304 303 299 298 297 297 299 300 300 301 302
150 144 154 161 156 158 166 170 168 165 164 172 176 186 196 197 207 219 240 264 292 300 304 301 300 305 305 307 303 297 300 301 298 297 301 342 349 352 340 340 334 329 350 328 305 312 310 301 301 302 301 306 309 309 307 310 309 311 310 313 315 310 309 310 308 308 305 312 316 316 315 314 311 307 306 304 304 302 300 299 298 298 298 299 298
150 153 159 165 162 160 163 163 162 165 170 176 177 187 181 196 209 220 226 246 262 281 290 292 301 303 300 301 307 310 307 306 302 299 311 0 9 14 359 341 329 319 319 312 308 309 302 299 301 307 309 307 304 303 302 302 302 305 310 307 304 307 305 302 302 303 315 320 321 321 320 316 314 312 309 305 301 300 299 300 299 299 298 297 298
164 162 160 166 163 163 154 153 161 166 167 163 173 181 191 201 210 218 234 242 256 264 274 293 307 302 277 259 299 318 317 315 309 298 329 17 16 34 29 315 300 303 300 308 310 308 309 308 311 307 302 300 300 296 297 300 300 301 299 299 299 299 300 298 309 323 325 326 325 323 321 318 317 316 314 311 309 306 304 303 302 300 301 301 302
164 158 160 144 145 144 148 156 163 166 172 178 180 184 188 199 209 223 232 241 246 261 271 273 277 283 296 296 333 316 318 312 305 294 306 346 10 0 316 280 273 272 283 291 295 298 296 298 299 296 297 294 295 298 298 298 300 299 300 301 300 293 301 309 321 326 328 330 328 326 324 321 320 318 316 313 311 311 309 309 308 307 304 303 302
168 157 148 153 161 159 160 156 162 172 178 177 185 184 196 202 208 216 221 233 241 250 255 261 260 256 262 284 303 315 316 298 292 285 297 302 303 295 287 282 272 271 268 274 277 280 287 289 290 294 290 292 294 294 293 295 299 296 298 300 300 303 309 319 322 327 329 332 330 328 326 324 323 320 318 313 312 312 310 310 309 308 306 305 304
154 157 167 168 168 172 165 167 165 169 176 175 187 188 202 208 208 207 218 230 244 245 248 253 251 248 249 256 272 285 284 286 282 281 289 288 283 269 261 263 259 260 264 267 270 273 273 272 280 283 288 291 291 290 292 291 291 293 297 297 303 306 307 314 322 324 329 332 332 330 327 324 322 319 316 316 314 314 314 312 312 310 310 308 304
156 156 160 176 172 165 165 170 177 181 175 183 184 190 205 204 205 212 227 235 245 249 255 249 253 250 242 251 259 257 257 268 275 279 278 271 277 271 261 257 261 266 267 271 273 280 280 281 281 282 283 283 287 291 292 291 292 292 294 296 297 300 304 308 315 322 325 329 331 329 327 322 320 320 319 317 317 316 312 313 314 314 311 306 304
156 154 163 169 174 177 171 180 177 175 177 181 191 199 196 200 205 216 224 233 238 250 259 259 257 249 249 257 264 270 270 262 259 266 266 261 262 263 261 264 261 260 269 273 274 279 283 280 278 277 280 281 281 286 290 286 288 293 296 295 295 299 304 307 314 319 322 325 327 324 325 321 320 318 314 312 312 314 315 315 315 312 310 311 309
154 157 159 157 167 177 180 177 164 171 182 188 199 190 195 197 209 215 227 231 244 248 255 262 266 254 251 258 268 280 274 259 248 254 254 257 253 256 256 257 259 256 258 265 268 268 272 275 275 272 269 273 278 282 284 287 288 286 286 289 294 295 299 303 311 319 325 324 320 315 315 320 325 323 319 314 313 312 310 309 308 308 309 310 315
153 146 145 160 167 163 166 166 176 187 188 184 182 190 194 203 215 221 226 234 236 244 250 257 263 270 270 265 255 253 247 246 239 241 238 246 249 250 255 258 261 262 262 258 257 253 259 266 269 269 266 267 266 267 276 279 282 278 280 284 286 289 293 300 306 311 319 320 315 312 323 321 315 324 321 318 317 314 312 311 311 312 313 315 317
151 151 155 164 171 176 182 185 188 181 175 179 196 195 194 205 217 218 223 233 234 242 250 255 259 263 266 259 242 237 237 235 238 236 240 240 250 251 255 255 256 255 256 257 251 249 251 261 267 268 267 265 262 264 268 269 273 275 273 278 280 283 285 293 299 306 312 314 309 306 317 315 314 315 323 319 315 312 311 314 314 313 314 315 318
156 155 159 164 169 182 185 185 187 186 188 192 192 195 197 204 214 218 224 230 236 245 251 251 253 253 256 258 255 247 247 241 244 240 242 244 242 250 248 251 252 256 257 259 259 250 250 258 268 268 272 270 270 269 273 272 271 268 268 265 267 272 279 287 293 303 307 305 300 299 307 304 304 304 308 317 316 311 308 307 307 311 311 311 312
149 160 163 173 180 185 186 178 186 192 192 197 196 200 210 207 211 220 224 226 237 244 248 252 250 251 250 250 250 252 249 251 246 246 238 240 244 249 252 251 252 256 257 254 250 252 250 245 250 257 268 275 276 275 278 273 270 270 266 269 270 276 279 288 301 302 296 294 293 292 297 299 299 302 307 314 322 314 313 309 312 312 311 312 314
157 164 173 178 181 188 189 187 193 190 199 196 201 204 212 217 220 221 225 223 227 237 242 248 246 248 249 254 250 254 256 256 256 254 255 251 247 242 240 242 251 252 258 256 252 248 249 255 255 260 274 276 273 275 273 273 275 270 270 268 269 269 282 291 294 290 286 293 300 292 290 292 294 298 304 307 315 322 317 318 322 318 319 319 321
160 171 177 183 196 197 193 193 191 195 195 189 195 205 212 219 224 224 224 228 230 234 237 243 247 246 245 246 248 256 256 258 259 260 257 254 252 250 249 248 249 253 258 260 259 255 253 256 251 261 262 273 276 275 277 276 276 276 274 268 270 275 282 288 288 283 291 293 297 305 299 287 292 301 293 290 301 312 316 310 318 321 318 322 326
178 182 183 189 197 207 200 197 196 198 193 199 205 217 215 220 228 229 226 226 235 236 238 237 242 245 245 247 244 243 245 249 249 254 257 261 261 260 258 256 252 255 255 258 260 262 262 262 256 255 256 256 262 265 265 266 267 269 270 268 276 283 286 287 289 291 293 299 303 300 298 290 286 288 290 291 292 304 313 319 319 317 315 315 321
175 182 189 195 199 197 192 201 207 211 211 213 214 220 220 222 228 227 226 226 232 235 234 234 241 240 242 243 242 250 245 244 248 254 257 260 257 257 254 255 257 256 258 255 259 259 258 255 261 261 259 259 261 260 264 263 265 264 269 277 282 283 284 287 290 294 298 303 300 295 287 297 298 298 291 297 303 304 310 312 313 317 321 321 321